Location: Albany
(35.0170°S, 117.8920°E)
Time: 02:55:54
(UTC+08:00)

Vanguard 1 - Pass Details

Date: 27 January 2021
Orbit: 649 x 3833 km, 34.2° (Epoch: 26 February)

Event Time Altitude Azimuth Distance (km) Brightness Sun altitude
Rises 22:15:41 0° 324° (NW) 5,939 13.9 -28.9°
Enters shadow 22:20:32 - 333° (NNW) 4,487 13.1 -29.5°
Reaches altitude 10° 22:21:04 10° 334° (NNW) 4,329 - -29.5°
Maximum altitude 22:29:08 25° 23° (NNE) 2,417 - -30.4°
Drops below altitude 10° 22:34:29 10° 77° (ENE) 2,772 - -31.0°
Sets 22:37:04 0° 91° (E) 3,459 - -31.2°
